Regional Weather Roundup
Issued by NWS

Home | Current Version | Previous Version | Text Only | Print | Product List | Glossary Off
Versions: 1 2 3 4 5 6 7 8 9 10 11 12 13 14 15 16 17 18 19 20 21 22 23 24 25 26 27 28 29 30 31 32 33 34 35 36 37 38 39 40 41 42 43 44 45 46 47 48 49 50

000
ASUS43 KDTX 011410
RWRMI
MICHIGAN HOURLY REGIONAL WEATHER ROUNDUP
NATIONAL WEATHER SERVICE DETROIT/PONTIAC MI
1000 AM EDT MON SEP 01 2014

NOTE: "FAIR" INDICATES FEW OR NO CLOUDS BELOW 12,000 FEET WITH NO
SIGNIFICANT WEATHER AND/OR OBSTRUCTION TO VISIBILITY.

MIZ047>049-052>055-059>063-066>070-074>076-081>083-011500-
SOUTHEAST LOWER MICHIGAN

CITY           SKY/WX    TMP DP  RH WIND       PRES   REMARKS
ADRIAN         LGT RAIN  72  70  93 SW13G22   29.92S
ALMA           CLOUDY    71  70  96 S6        29.82F FOG
ANN ARBOR      CLOUDY    72  68  88 S8        29.90F FOG
BAD AXE        MOSUNNY   75  72  91 S8        29.87S
CARO           SUNNY     76  71  85 S9        29.85F
DETROIT CITY   PTSUNNY   77  70  79 SW8       29.91S
DETROIT        PTSUNNY   74  70  87 S8        29.91F FOG
FLINT          CLOUDY    77  69  76 S10       29.87F
GROSSE ILE     PTSUNNY   75  72  88 S13       29.90F
HILLSDALE      CLOUDY    72  72 100 S5        29.90F FOG
HOWELL         CLOUDY    71  70  96 S7        29.88F FOG

CITY           SKY/WX    TMP DP  RH WIND       PRES   REMARKS
JACKSON        CLOUDY    73  70  90 S12G21    29.88F
LAMBERTVILLE   CLOUDY    73  68  83 S10       29.92S
LANSING        CLOUDY    73  70  90 S8        29.84F
LAPEER         PTSUNNY   74  69  84 S8        29.89F
MASON          CLOUDY    72  71  96 MISG      29.86F FOG
MONROE         PTSUNNY   75  70  83 SW8       29.90S
MT. CLEMENS    MOSUNNY   77  69  78 SW7       29.89F
PONTIAC        CLOUDY    72  68  87 S6        29.90F FOG
PORT HOPE        N/A     77  69  76 VRB5      29.84F
PORT HURON     CLOUDY    72  72 100 S7        29.90F FOG
TRI CITIES     PTSUNNY   74  70  87 S12       29.84F
TROY           CLOUDY    74  69  85 S8        29.92F HAZE
SAGINAW HB     MOSUNNY   75  73  94 S8        29.84F
$$
MIZ043>046-050>051-056>058-064>065-071>073-077>080-011500-
SOUTHWEST LOWER MICHIGAN

CITY           SKY/WX    TMP DP  RH WIND       PRES   REMARKS
BATTLE CREEK   CLOUDY    73  70  90 S14       29.85F FOG
BENTON HARBOR  PTSUNNY   74  71  91 S10G18    29.78F FOG
BIG RAPIDS     CLOUDY    72  72  99 S7        29.78F FOG
COLDWATER      CLOUDY    75  72  90 S6        29.88S
FREMONT        CLOUDY    73  71  93 S8        29.76F
HOLLAND        CLOUDY    75  71  87 S15       29.79F
GRAND RAPIDS   PTSUNNY   76  74  93 S15G23    29.81F
IONIA          CLOUDY    74  71  90 S16       29.81F
KALAMAZOO      CLOUDY    73  70  90 S16       29.84S FOG
LUDINGTON      CLOUDY    74  71  89 S13       29.71F
MARSHALL       CLOUDY    72  70  93 S9G20     29.86S FOG
MOUNT PLEASANT CLOUDY    69  69  98 SE6       29.80F FOG
MUSKEGON       CLOUDY    76  69  79 S21G32    29.75F
SOUTH HAVEN    CLOUDY    74  72  91 S9        29.78F
$$
MIZ016>042-011500-
NORTHERN LOWER MICHIGAN

CITY           SKY/WX    TMP DP  RH WIND       PRES   REMARKS
ALPENA         SUNNY     69  67  93 S9        29.79F
BEAVER ISLAND  MOSUNNY   73  68  85 S8G17     29.70S
BELLAIRE       SUNNY     76  68  76 S12       29.73F
CADILLAC       CLOUDY    71  69  96 S9        29.78S FOG
CHARLEVOIX     SUNNY     74  71  88 S9G16     29.74F
FRANKFORT      PTSUNNY   75  68  79 S8G18     29.71F
GAYLORD        CLOUDY    67  66  97 S9        29.79F FOG
GRAYLING       CLOUDY    69  69 100 SE6       29.80F FOG
HARBOR SPRINGS MOSUNNY   74  68  81 CALM      29.73F
HOUGHTON LAKE  CLOUDY    68  67  96 S8        29.80F FOG
MANISTEE       PTSUNNY   73  68  83 S9        29.72F
OSCODA         MOSUNNY   71  70  95 S7        29.82F
PELLSTON       MOSUNNY   70  66  87 SE7       29.74F
ROGERS CITY    PTSUNNY   72  68  88 S10       29.78F
TRAVERSE CITY  MOSUNNY   77  69  76 S6        29.71F
$$
MIZ007>008-015-011500-
EASTERN UPPER MICHIGAN

CITY           SKY/WX    TMP DP  RH WIND       PRES   REMARKS
KINROSS        CLOUDY    66  64  94 SE16      29.74F
MACKINAC ISLAN PTSUNNY   67  65  93 SE12      29.73F
NEWBERRY       CLOUDY    68  65  90 S15       29.70S
S. S. MARIE    CLOUDY    66  63  90 SE10      29.75F
MUNISING         N/A     74  67  78 S9        29.64F
$$
MIZ004>006-011>014-085-011500-
CENTRAL UPPER MICHIGAN

CITY           SKY/WX    TMP DP  RH WIND       PRES   REMARKS
MANISTIQUE     CLOUDY    67  66  97 SE5       29.68F FOG
ESCANABA       CLOUDY    68  64  88 SW9       29.66S
MENOMINEE      CLOUDY    68  64  88 S8        29.68R
SAWYER-GWINN   PTSUNNY   68  66  94 S15       29.65S
$$
MIZ001>003-009>011-084-011500-
WESTERN UPPER MICHIGAN

CITY           SKY/WX    TMP DP  RH WIND       PRES   REMARKS
IRON MOUNTAIN  LGT RAIN  68  66  93 S6        29.65R FOG
HOUGHTON       LGT RAIN  66  62  87 W12G25    29.56F
COPPER HARBOR    N/A     69  63  81 CALM      29.52F
$$

ABBREVIATIONS USED IN REMARKS
   TC - TEMPERATURE IN CELSIUS
  WCI - WIND CHILL INDEX
   HX - HEAT INDEX
  VSB - VISIBILITY




USA.gov is the U.S. government's official web portal to all federal, state and local government web resources and services.